Flag Weather past 2 weeks in Guelph, Ontario, Canada

Now
30 °F

Overcast.


Feels Like: 27 °F
Forecast: 28 / 33 °F
Wind: 3 mph from Southeast

Location: Waterloo Well

Current Time: Nov 26, 2014 at 5:42:07 AM

Latest Report: Nov 26, 2014 at 5:00 AM


Visibility: 9 mi

Pressure: 30.20 "Hg

Humidity: 86%

Dew point: 27 °F

Location of GuelphLocation

Historic Weather in Guelph — Graph

°F

Guelph temperature yesterday

Maximum temperature yesterday: 36 °F (at 12:00 AM)
Minimum temperature yesterday: 30 °F (at 5:02 PM)
Average temperature yesterday: 33 °F

Past Weeks' High & Low Weather Summary

 TemperatureHumidityPressure
High61 °F (Nov 11, 1:00 PM)100% (Nov 11, 7:00 AM)30.47 "Hg (Nov 11, 7:00 AM)
Low9 °F (Nov 21, 7:00 AM)48% (Nov 11, 1:00 PM)29.15 "Hg (Nov 24, 6:00 AM)
Average30 °F82%29.94 "Hg
* Reported Nov 11 4:00 AM — Nov 26 4:00 AM, Guelph, Weather by CustomWeather, © 2014

Note: Actual official high and low records may vary slightly from our data, if they occured in-between our weather recording intervals... More about our weather records

Advertising

Guelph weather history for previous 24 hours

 ConditionsComfort  
Time TempWeatherWind HumidityBarometerVisibility
4:00 AM
Nov 26
30 °FOvercast.2 mph80%30.22 "Hg9 mi
3:00 AM30 °FOvercast.3 mph80%30.18 "Hg9 mi
2:00 AM30 °FOvercast.3 mph80%30.21 "Hg9 mi
1:00 AM30 °FOvercast.7 mph80%30.20 "Hg9 mi
12:00 AM30 °FMostly cloudy.9 mph80%30.21 "Hg9 mi
11:00 PM
Nov 25
30 °FOvercast.8 mph80%30.20 "Hg9 mi
10:00 PM30 °FOvercast.12 mph80%30.17 "Hg9 mi
9:00 PM32 °FOvercast.9 mph75%30.15 "Hg9 mi
8:00 PM30 °FOvercast.15 mph80%30.12 "Hg9 mi
7:00 PM30 °FOvercast.16 mph80%30.09 "Hg9 mi
6:00 PM30 °FLight snow. Overcast.15 mph80%30.07 "Hg9 mi
5:02 PM30 °FLight snow. Overcast.16 mph80%30.04 "Hg9 mi
4:01 PM32 °FLight snow. Mostly cloudy.22 mph75%30.01 "Hg9 mi
3:03 PM32 °FLight snow. Overcast.20 mph75%29.99 "Hg9 mi
3:00 PM32 °FOvercast.23 mph75%29.99 "Hg9 mi
2:00 PM32 °FMore clouds than sun.25 mph75%29.95 "Hg9 mi
1:00 PM32 °FOvercast.21 mph75%29.93 "Hg9 mi
12:59 PM32 °FOvercast.22 mph75%29.93 "Hg9 mi
12:00 PM32 °FLight snow. Overcast.15 mph80%29.92 "Hg9 mi
11:00 AM32 °FLight snow. Overcast.20 mph80%29.90 "Hg9 mi
10:00 AM32 °FOvercast.22 mph80%29.87 "Hg9 mi
9:00 AM32 °FOvercast.20 mph80%29.84 "Hg9 mi
8:03 AM34 °FOvercast.23 mph75%29.81 "Hg9 mi
7:48 AM34 °FLight rain. Overcast.18 mph75%29.81 "Hg9 mi
7:00 AM34 °FOvercast.28 mph75%29.80 "Hg9 mi
6:00 AM34 °FOvercast.22 mph81%29.78 "Hg9 mi
5:00 AM34 °FMostly cloudy.22 mph81%29.75 "Hg9 mi
Weather by CustomWeather, © 2014

See weather overviewHow to use our weather pages